Location: Grantsboro
(35.1404°N, 76.8424°W)
Time: 05:29:40
(UTC+00:00)

STARLINK-76 - Pass Details

Date: 18 January 2020
Orbit: 528 x 531 km, 53.0° (Epoch: 26 February)

Event Time Altitude Azimuth Distance (km) Brightness Sun altitude
Exits shadow 11:29:11 - 238° (WSW) 2,538 6.6 -9.4°
Reaches altitude 10° 11:31:10 10° 244° (WSW) 1,765 5.8 -9.1°
Maximum altitude 11:35:03 49° 319° (NW) 690 3.8 -8.3°
Drops below altitude 10° 11:38:57 10° 35° (NE) 1,775 6.4 -7.5°
Sets 11:41:14 0° 41° (NE) 2,667 7.4 -7.1°
